Hollywood, FL

6:14 AM EDT on August 27, 2016 (GMT -0400)
North Perry

Weather History for KHWO - May, 2013

Change the Weather History Date:

Friday, May 24, 2013

  Actual Average (KFLL) Record (KFLL)
Temperature  
Mean Temperature 83 °F 81 °F  
Max Temperature 93 °F 87 °F 94 °F (1951)
Min Temperature 75 °F 76 °F 63 °F (1949)
Degree Days  
Heating Degree Days 0 0  
Month to date heating degree days 0  
Since 1 July heating degree days 112  
Cooling Degree Days 18 16  
Month to date cooling degree days 352  
Year to date cooling degree days 1299  
Growing Degree Days 33 (Base 50)    
Moisture  
Dew Point 70 °F    
Average Humidity 69    
Maximum Humidity 90    
Minimum Humidity 42    
Precipitation  
Precipitation 0.00 in 0.20 in 4.10 in (1958)
Month to date precipitation 3.09  
Year to date precipitation 15.93  
Snow  
Snow 0.00 in - - ()
Month to date snowfall  
Since 1 July snowfall  
Snow Depth -    
Sea Level Pressure  
Sea Level Pressure 30.04 in    
Wind  
Wind Speed 6 mph (NNE)    
Max Wind Speed 14 mph    
Max Gust Speed 25 mph    
Visibility 10 miles    
Events      
T = Trace of Precipitation, MM = Missing Value Source: NWS Daily Summary

Daily Weather History Graph

Daily Weather History Graph

Search for Another Location

Airport or City:

Trip Planner

Search our weather history database for the weather conditions in past years. The results will help you decide how hot, cold, wet, or windy it might be!

Date:

Astronomy

May. 24, 2013 Rise Set
Actual Time 6:30 AM EDT 8:04 PM EDT
Civil Twilight 6:05 AM EDT 8:30 PM EDT
Nautical Twilight 5:35 AM EDT 9:00 PM EDT
Astronomical Twilight 5:03 AM EDT 9:32 PM EDT
Moon 7:47 PM EDT (5/24) 5:56 AM EDT (5/24)
Length of Visible Light 14h 24m
Length of Day
13h 33m
Full, 100% of the Moon is Illuminated
May 24
Full
May 25
Full
May 31
Last Quarter
Jun 8
New
Jun 16
First Quarter

Hourly Weather History & Observations

Time (EDT) Temp. Heat Index Dew Point Humidity Pressure Visibility Wind Dir Wind Speed Gust Speed Precip Events Conditions
12:53 AM 79.0 °F - 73.0 °F 82% 30.01 in 10.0 mi WSW 4.6 mph - N/A   Clear
1:53 AM 77.0 °F - 72.0 °F 84% 30.00 in 10.0 mi SW 3.5 mph - N/A   Clear
2:53 AM 75.9 °F - 72.0 °F 87% 29.98 in 10.0 mi WSW 3.5 mph - N/A   Clear
3:53 AM 75.0 °F - 71.1 °F 87% 29.98 in 10.0 mi SSW 3.5 mph - N/A   Clear
4:53 AM 75.0 °F - 72.0 °F 90% 29.99 in 10.0 mi WSW 6.9 mph - N/A   Clear
5:53 AM 75.0 °F - 72.0 °F 90% 30.00 in 10.0 mi West 4.6 mph - N/A   Clear
6:53 AM 75.0 °F - 71.1 °F 87% 30.03 in 10.0 mi West 5.8 mph - N/A   Clear
7:53 AM 77.0 °F - 69.1 °F 76% 30.04 in 10.0 mi WSW 5.8 mph - N/A   Clear
8:53 AM 80.1 °F 83.6 °F 71.1 °F 74% 30.05 in 10.0 mi NW 4.6 mph - N/A   Clear
9:53 AM 82.9 °F 86.5 °F 69.1 °F 63% 30.06 in 10.0 mi NNW 9.2 mph - N/A   Clear
10:53 AM 87.1 °F 92.0 °F 70.0 °F 57% 30.06 in 10.0 mi NNW 9.2 mph - N/A   Clear
11:53 AM 90.0 °F 95.4 °F 70.0 °F 52% 30.06 in 10.0 mi Variable 4.6 mph - N/A   Clear
12:53 PM 91.9 °F 94.5 °F 66.0 °F 42% 30.05 in 10.0 mi NNW 9.2 mph - N/A   Partly Cloudy
1:53 PM 88.0 °F 93.8 °F 71.1 °F 57% 30.04 in 10.0 mi ENE 9.2 mph - N/A   Scattered Clouds
2:53 PM 89.1 °F 96.0 °F 72.0 °F 57% 30.03 in 10.0 mi ENE 12.7 mph - N/A   Clear
3:53 PM 88.0 °F 95.6 °F 73.0 °F 61% 30.03 in 10.0 mi East 9.2 mph - N/A   Clear
4:53 PM 87.1 °F 93.6 °F 72.0 °F 61% 30.03 in 10.0 mi East 11.5 mph - N/A   Clear
5:53 PM 84.9 °F 89.4 °F 70.0 °F 61% 30.05 in 10.0 mi NE 13.8 mph - N/A   Clear
6:07 PM 82.4 °F 82.0 °F 57.2 °F 42% 30.04 in 10.0 mi North 11.5 mph 25.3 mph N/A   Scattered Clouds
6:53 PM 84.9 °F 88.8 °F 69.1 °F 59% 30.03 in 10.0 mi ENE 11.5 mph - 0.00 in   Scattered Clouds
7:53 PM 82.0 °F 86.3 °F 71.1 °F 69% 30.03 in 10.0 mi East 9.2 mph - N/A   Clear
8:53 PM 81.0 °F 84.9 °F 71.1 °F 72% 30.06 in 10.0 mi East 6.9 mph - N/A   Clear
9:53 PM 81.0 °F 84.9 °F 71.1 °F 72% 30.07 in 10.0 mi ESE 6.9 mph - N/A   Clear
10:53 PM 80.1 °F 83.6 °F 71.1 °F 74% 30.08 in 10.0 mi ESE 4.6 mph - N/A   Clear
11:53 PM 80.1 °F 83.8 °F 72.0 °F 76% 30.09 in 10.0 mi Calm Calm - N/A   Clear